Location: Ottawa
(45.4167°N, 75.7000°W)
Time: 01:23:17
(UTC-04:00)

Envisat - Pass Details

Date: 12 October 2017
Orbit: 764 x 766 km, 98.2° (Epoch: 19 October)

Event Time Altitude Azimuth Distance (km) Brightness Sun altitude
Exits shadow 21:33:57 35° 266° (W) 1,227 4.4 -33.7°
Drops below altitude 10° 21:38:32 10° 329° (NNW) 2,311 6.1 -34.4°
Sets 21:41:03 0° 339° (NNW) 3,242 6.9 -34.8°
